Hourly Weather Sent-Eli

Today, 26 October, Monday

Time Temperature Precipitation Wind Pressure Humidity
00:00 +28°C° 0.5 mm 6 mps 753 mmHg 83%
01:00 +28°C° 0.5 mm 5 mps 753 mmHg 84%
02:00 +27°C° 0.5 mm 5 mps 752 mmHg 85%
03:00 +27°C° 0.4 mm 5 mps 752 mmHg 87%
04:00 +27°C° 0.4 mm 5 mps 752 mmHg 90%
05:00 +27°C° 0.4 mm 5 mps 753 mmHg 92%
06:00 +28°C° 0.1 mm 5 mps 753 mmHg 86%
07:00 +30°C° 0.1 mm 5 mps 753 mmHg 79%
08:00 +32°C° 0 mm 5 mps 754 mmHg 75%
09:00 +32°C° 0.3 mm 4 mps 754 mmHg 71%
10:00 +33°C° 0.3 mm 4 mps 754 mmHg 68%
11:00 +34°C° 0.3 mm 4 mps 754 mmHg 64%
12:00 +29°C° 0.9 mm 5 mps 752 mmHg 86%
13:00 +29°C° 0.9 mm 5 mps 752 mmHg 85%
14:00 +30°C° 0.9 mm 5 mps 752 mmHg 83%
15:00 +32°C° 0.4 mm 5 mps 752 mmHg 72%
16:00 +29°C° 0.4 mm 5 mps 752 mmHg 79%
17:00 +28°C° 0.4 mm 5 mps 752 mmHg 87%
18:00 +29°C° 0.3 mm 5 mps 752 mmHg 78%
19:00 +29°C° 0.3 mm 5 mps 753 mmHg 80%
20:00 +29°C° 0.3 mm 5 mps 754 mmHg 82%
21:00 +29°C° 0.8 mm 5 mps 752 mmHg 87%
22:00 +28°C° 0.8 mm 5 mps 753 mmHg 90%
23:00 +27°C° 0.8 mm 5 mps 753 mmHg 94%

Tomorrow, 27 October, Tuesday

Time Temperature Precipitation Wind Pressure Humidity
00:00 +27°C° 0.1 mm 5 mps 753 mmHg 93%
01:00 +27°C° 0.1 mm 4 mps 752 mmHg 93%
02:00 +27°C° 0.1 mm 4 mps 752 mmHg 93%
03:00 +27°C° 0.1 mm 4 mps 752 mmHg 93%
04:00 +27°C° 0.1 mm 4 mps 752 mmHg 92%
05:00 +27°C° 0.1 mm 4 mps 752 mmHg 92%
06:00 +28°C° 0 mm 4 mps 752 mmHg 85%
07:00 +30°C° 0 mm 4 mps 753 mmHg 79%
08:00 +32°C° 0 mm 4 mps 753 mmHg 72%
09:00 +33°C° 0 mm 4 mps 753 mmHg 67%
10:00 +34°C° 0 mm 4 mps 753 mmHg 63%
11:00 +34°C° 0 mm 4 mps 753 mmHg 58%
12:00 +34°C° 0 mm 4 mps 752 mmHg 59%
13:00 +34°C° 0 mm 5 mps 751 mmHg 60%
14:00 +34°C° 0 mm 5 mps 751 mmHg 60%
15:00 +33°C° 0 mm 5 mps 751 mmHg 66%
16:00 +32°C° 0 mm 5 mps 751 mmHg 71%
17:00 +30°C° 0 mm 5 mps 751 mmHg 77%
18:00 +29°C° 0.1 mm 4 mps 751 mmHg 77%
19:00 +29°C° 0.1 mm 5 mps 752 mmHg 79%
20:00 +29°C° 0.1 mm 5 mps 752 mmHg 81%
21:00 +29°C° 0.5 mm 5 mps 752 mmHg 81%
22:00 +29°C° 0.5 mm 5 mps 752 mmHg 80%
23:00 +28°C° 0.5 mm 6 mps 752 mmHg 80%

Day after tomorrow, 28 October, Wednesday

Time Temperature Precipitation Wind Pressure Humidity
00:00 +28°C° 0 mm 6 mps 751 mmHg 80%
01:00 +28°C° 0 mm 6 mps 751 mmHg 80%
02:00 +28°C° 0 mm 6 mps 750 mmHg 81%
03:00 +28°C° 0.1 mm 6 mps 750 mmHg 82%
04:00 +28°C° 0.1 mm 6 mps 751 mmHg 83%
05:00 +28°C° 0.1 mm 6 mps 751 mmHg 84%
06:00 +28°C° 1.1 mm 6 mps 752 mmHg 85%
07:00 +29°C° 1.1 mm 6 mps 752 mmHg 86%
08:00 +29°C° 1.1 mm 6 mps 753 mmHg 87%
09:00 +30°C° 1.4 mm 6 mps 753 mmHg 82%
10:00 +32°C° 1.4 mm 6 mps 752 mmHg 77%
11:00 +33°C° 1.4 mm 6 mps 752 mmHg 72%
12:00 +32°C° 0.8 mm 6 mps 752 mmHg 71%
13:00 +32°C° 0.8 mm 7 mps 751 mmHg 70%
14:00 +32°C° 0.8 mm 7 mps 750 mmHg 69%
15:00 +32°C° 0.2 mm 7 mps 751 mmHg 71%
16:00 +30°C° 0.2 mm 7 mps 751 mmHg 74%
17:00 +29°C° 0.2 mm 8 mps 751 mmHg 77%
18:00 +29°C° 0.1 mm 7 mps 751 mmHg 79%
19:00 +29°C° 0.1 mm 7 mps 752 mmHg 80%
20:00 +28°C° 0.1 mm 7 mps 752 mmHg 81%
21:00 +29°C° 0 mm 7 mps 752 mmHg 80%
22:00 +29°C° 0 mm 7 mps 752 mmHg 79%
23:00 +29°C° 0 mm 7 mps 751 mmHg 78%

29 October, Thursday

Time Temperature Precipitation Wind Pressure Humidity
00:00 +29°C° 0.1 mm 7 mps 751 mmHg 80%
01:00 +29°C° 0.1 mm 7 mps 751 mmHg 81%
02:00 +29°C° 0.1 mm 7 mps 750 mmHg 82%
03:00 +28°C° 0.4 mm 7 mps 750 mmHg 84%
04:00 +28°C° 0.4 mm 7 mps 751 mmHg 86%
05:00 +28°C° 0.4 mm 7 mps 751 mmHg 88%
06:00 +28°C° 1 mm 7 mps 752 mmHg 88%
07:00 +28°C° 1 mm 7 mps 753 mmHg 89%
08:00 +28°C° 1 mm 7 mps 753 mmHg 90%
09:00 +28°C° 1.3 mm 7 mps 753 mmHg 89%
10:00 +28°C° 1.3 mm 6 mps 753 mmHg 89%
11:00 +28°C° 1.3 mm 6 mps 753 mmHg 88%
12:00 +29°C° 0.3 mm 6 mps 752 mmHg 83%
13:00 +30°C° 0.3 mm 6 mps 752 mmHg 78%
14:00 +32°C° 0.3 mm 6 mps 751 mmHg 73%
15:00 +30°C° 0.1 mm 7 mps 751 mmHg 75%
16:00 +30°C° 0.1 mm 7 mps 751 mmHg 78%
17:00 +29°C° 0.1 mm 7 mps 751 mmHg 80%
18:00 +29°C° 0.3 mm 7 mps 752 mmHg 83%
19:00 +28°C° 0.3 mm 6 mps 752 mmHg 86%
20:00 +28°C° 0.3 mm 6 mps 753 mmHg 89%
21:00 +28°C° 0.3 mm 6 mps 753 mmHg 89%
22:00 +28°C° 0.3 mm 6 mps 753 mmHg 90%
23:00 +28°C° 0.3 mm 6 mps 753 mmHg 90%

30 October, Friday

Time Temperature Precipitation Wind Pressure Humidity
00:00 +28°C° 0.2 mm 6 mps 752 mmHg 91%
01:00 +27°C° 0.2 mm 6 mps 752 mmHg 91%
02:00 +27°C° 0.2 mm 6 mps 752 mmHg 91%
03:00 +27°C° 0.3 mm 6 mps 752 mmHg 91%
04:00 +27°C° 0.3 mm 6 mps 752 mmHg 91%
05:00 +27°C° 0.3 mm 5 mps 752 mmHg 92%
06:00 +28°C° 0.5 mm 6 mps 753 mmHg 90%
07:00 +28°C° 0.5 mm 6 mps 753 mmHg 89%
08:00 +29°C° 0.5 mm 6 mps 754 mmHg 88%
09:00 +30°C° 0.4 mm 6 mps 754 mmHg 85%
10:00 +30°C° 0.4 mm 6 mps 754 mmHg 82%
11:00 +32°C° 0.4 mm 6 mps 754 mmHg 79%
12:00 +32°C° 0.2 mm 6 mps 753 mmHg 76%
13:00 +32°C° 0.2 mm 6 mps 752 mmHg 74%
14:00 +32°C° 0.2 mm 6 mps 752 mmHg 72%
15:00 +30°C° 0.1 mm 6 mps 752 mmHg 76%
16:00 +30°C° 0.1 mm 6 mps 752 mmHg 80%
17:00 +29°C° 0.1 mm 6 mps 752 mmHg 84%
18:00 +28°C° 0 mm 6 mps 752 mmHg 86%
19:00 +28°C° 0 mm 6 mps 753 mmHg 87%
20:00 +28°C° 0 mm 6 mps 753 mmHg 89%
21:00 +28°C° 0.2 mm 6 mps 753 mmHg 90%
22:00 +28°C° 0.2 mm 6 mps 753 mmHg 91%
23:00 +27°C° 0.2 mm 6 mps 753 mmHg 92%

31 October, Saturday

Time Temperature Precipitation Wind Pressure Humidity
00:00 +27°C° 0.2 mm 6 mps 753 mmHg 91%
01:00 +27°C° 0.2 mm 6 mps 752 mmHg 91%
02:00 +27°C° 0.2 mm 6 mps 752 mmHg 91%
Show more

We Need Your Consent

Meteoprog and our Service Providers may store and access personal data such as cookies, device identifiers or other similar technologies on your device and process such data to personalise content and ads, as well as provide social media features and to analyse the traffic.

  • Store and/or access information on your device

    Cookies, device identifiers or other information can be stored or accessed on your device for the purposes indicated above.

  • Personalised ads and content, ad and content measurement, audience insights, and products development

    Ads and content can be personalised based on a profile. More data can be added to better personalise ads and content. Ad and content performance can be measured. Insights about the audience who saw the ads and content can be derived. Such data can be used to develop or improve user’s experience, systems and software.

By clicking ‘I Agree’ you will allow the use of indicated cookies, device identifiers, web beacons or other similar technologies. Your settings can be changed in the browser on your device.

For certain purposes, legitimate interests may be relied on, rather than consent. You can read more about this in our Privacy and Cookie Policy.